Вернуться в каталог

ION SCV-017

АктивенНаукаSSO
NORAD 63230·PAYLOAD·🇮🇹 Italy

Запущен Mar 15, 2025 с Vandenberg Space Force Base

Loading…

Ближайшие Пролёты (ближайшие 24 часа)

TLE

СвежийSource: Space-Track

Эпоха: Sep 14, 2026, 16:20 UTC

1 63230U 25052W   26257.68116594  .00003563  00000-0  13052-3 0  9991
2 63230  97.3769 152.0653 0023452  92.7182 267.6743 15.28413477 83709

Отслеживайте ION SCV-017 в реальном времени с AllMySat

Download on the App Store